Theta_e
301 301 301 301 302 302 303 304 305 306 306 306 306 306 306 307 308 309 310 311 317 330 333 333 333 331 331 330 332 334 334 333 332 331 331 329 326 328 327 326 325 327 326
299 299 300 301 302 303 303 304 305 305 306 306 306 305 306 305 306 307 309 310 312 315 328 332 332 332 331 331 331 332 334 333 332 331 331 331 326 328 327 327 326 325 326
298 299 300 301 302 303 303 304 304 304 305 305 304 304 304 305 305 305 307 308 310 313 316 328 332 332 332 331 331 331 332 333 332 331 331 331 327 326 326 327 326 323 326
298 299 300 301 302 303 303 303 303 303 303 303 303 303 303 304 304 305 305 306 307 310 313 316 326 331 332 331 331 332 326 332 333 331 330 331 327 327 324 325 325 325 325
297 298 300 301 302 302 302 302 302 300 301 301 300 300 303 304 304 304 305 305 306 307 310 314 318 328 331 331 332 332 332 331 332 332 330 331 328 326 326 326 325 323 322
296 297 299 300 301 302 302 301 299 298 298 297 297 300 302 303 304 307 307 306 305 306 307 310 315 318 328 331 331 332 332 331 333 332 331 330 330 328 326 326 326 323 323
295 296 298 300 301 300 300 299 298 299 299 298 298 299 302 302 304 306 307 308 310 307 306 307 311 318 319 327 331 332 333 330 331 332 332 330 330 330 328 327 325 325 325
294 295 297 300 300 299 299 298 297 297 299 299 295 297 298 301 303 303 306 306 307 307 309 308 308 316 320 320 327 330 332 332 330 331 332 331 329 330 330 328 326 326 326
293 292 295 298 299 299 298 297 295 297 296 298 296 295 297 298 297 302 302 304 304 307 308 310 311 311 318 322 326 327 329 331 331 329 332 332 329 329 330 328 326 326 326
290 291 292 295 297 298 297 296 294 297 296 295 295 294 295 295 297 298 301 302 303 304 306 308 310 311 317 322 325 326 326 327 329 330 330 332 331 329 329 329 327 326 325
289 289 290 292 295 297 297 295 295 296 295 293 291 292 296 297 297 296 299 301 303 303 303 305 308 310 313 318 322 324 325 326 327 329 330 327 328 330 329 329 328 327 326
288 288 289 290 293 295 296 295 295 295 295 294 292 291 291 290 291 292 293 297 299 302 303 303 304 308 311 314 318 322 324 325 326 326 327 326 326 330 330 328 329 329 329
288 287 287 287 289 292 294 294 295 295 294 292 291 292 291 290 290 291 291 293 294 300 301 304 304 305 309 312 314 319 323 324 324 323 325 321 324 326 328 328 327 328 329
286 286 286 286 286 288 290 292 294 295 293 292 292 292 292 291 290 289 289 289 291 295 299 300 304 304 306 310 313 314 315 322 322 321 321 325 325 322 322 330 330 327 327
285 285 285 285 285 285 285 287 290 292 292 291 291 291 292 292 291 290 290 289 288 291 292 299 300 303 304 306 310 314 316 320 323 324 323 325 327 324 322 322 323 322 327
285 284 285 285 284 284 284 284 285 285 287 289 290 291 291 291 291 291 289 290 290 289 290 295 298 299 303 306 308 312 317 319 321 322 324 326 327 325 322 323 321 321 325
284 284 284 284 284 283 283 283 284 284 284 283 283 284 284 288 291 291 290 290 290 290 290 294 296 298 301 305 308 312 317 319 321 321 322 324 327 327 326 325 323 323 322
283 283 283 283 283 282 282 283 282 283 283 283 283 283 283 283 287 289 288 288 288 289 290 290 294 299 300 301 305 306 311 314 320 322 323 324 325 325 326 324 321 321 324
282 282 283 283 282 282 282 281 281 281 281 281 281 281 282 282 282 285 288 289 289 288 288 290 291 292 296 299 301 299 305 307 315 319 321 322 325 326 325 325 324 323 323
282 282 282 282 282 282 281 281 281 281 281 280 280 280 280 280 281 282 283 286 288 290 289 291 291 291 291 295 297 296 297 301 302 312 316 318 318 322 323 324 324 323 323
282 281 281 282 282 282 281 281 281 281 281 280 280 280 280 279 279 280 282 283 285 287 287 287 290 291 290 290 293 293 292 294 298 300 299 308 309 310 314 319 319 320 319
282 280 281 281 282 281 280 281 281 281 281 281 280 280 280 279 279 279 281 282 283 283 284 283 283 288 288 289 288 289 292 295 293 292 296 296 302 302 303 308 311 316 318
281 280 280 280 281 280 280 280 280 280 280 280 280 279 280 279 279 279 279 280 282 282 282 282 282 284 286 286 288 288 287 289 289 289 290 290 294 294 291 294 300 304 305
281 280 279 279 280 280 279 279 279 279 279 278 279 278 278 278 278 278 278 279 279 280 281 281 281 282 284 286 287 288 288 287 288 288 288 286 288 288 290 292 292 293 294
281 280 279 279 279 279 279 279 279 279 278 278 277 277 277 277 277 278 278 278 278 277 278 279 280 281 281 283 287 289 289 289 287 286 287 286 286 286 289 291 291 292 293
281 279 278 278 278 278 279 278 278 278 278 278 277 277 275 276 277 277 278 277 277 276 277 277 278 279 280 280 281 282 283 285 285 286 284 283 286 287 286 286 288 290 291
Wind_Speed
21 22 23 24 25 26 27 27 28 29 29 29 30 32 32 35 37 38 39 37 35 33 34 33 33 32 31 32 34 31 30 30 29 30 30 28 28 34 38 35 33 30 29
20 21 23 24 25 27 28 29 30 30 30 31 31 30 32 33 35 38 39 40 39 36 34 35 35 35 33 33 34 34 33 33 32 32 30 30 29 31 37 35 33 31 30
20 22 23 24 26 27 28 29 30 31 32 29 30 32 33 31 33 35 38 41 41 41 37 35 35 36 36 34 34 35 34 35 34 34 32 31 34 32 33 34 35 33 32
19 21 22 25 26 27 28 29 30 30 30 32 33 30 30 33 32 31 33 36 40 42 42 38 35 36 36 37 36 36 37 38 36 34 34 33 37 36 36 35 35 33 31
20 22 24 26 27 28 28 28 28 28 29 30 32 34 31 28 27 26 27 30 34 39 42 42 38 36 36 37 39 38 40 40 38 36 36 37 40 40 39 39 38 36 34
20 21 23 25 27 28 28 27 27 26 26 29 32 31 28 16 12 10 11 17 25 30 36 42 42 39 37 36 39 39 40 39 40 38 38 39 41 44 42 41 42 40 39
19 20 23 25 27 27 26 25 25 26 23 26 31 34 22 12 2 8 7 12 9 18 27 37 41 40 39 35 39 40 41 41 40 39 39 40 41 43 47 44 43 41 42
17 19 22 25 27 27 25 23 22 25 22 23 25 23 17 13 8 17 6 9 10 13 13 23 34 39 40 36 36 37 40 44 43 42 39 39 42 43 45 46 46 44 44
17 18 20 24 27 28 26 23 22 23 25 21 18 10 10 8 35 9 16 10 20 14 13 16 19 28 37 34 34 34 38 41 45 43 43 40 41 43 45 46 47 46 43
16 18 19 21 25 27 26 23 20 20 20 20 19 12 13 17 11 17 25 30 22 20 18 16 17 18 22 28 33 33 32 34 40 45 46 42 41 45 46 47 47 47 45
17 18 19 20 22 25 25 23 20 18 18 18 16 19 18 18 12 18 28 26 31 26 22 22 20 21 22 23 30 30 30 32 33 41 45 48 47 46 47 48 49 47 47
17 17 18 19 20 22 24 24 21 18 17 15 14 14 15 14 21 19 29 33 33 33 29 24 23 20 24 26 25 27 27 29 29 31 39 48 52 46 47 47 48 49 47
16 17 19 19 19 20 21 22 21 20 18 18 17 16 14 14 19 20 23 27 27 37 32 29 20 19 19 23 25 22 20 27 30 30 30 46 45 57 35 45 46 46 48
16 17 18 19 19 19 19 19 20 21 21 19 20 19 18 15 15 17 19 23 29 22 30 24 24 15 13 14 19 20 21 23 30 33 33 37 38 52 64 50 42 39 43
15 16 17 18 19 19 19 19 19 19 20 20 21 23 23 20 17 16 18 16 14 13 22 28 23 20 19 19 17 22 21 25 28 31 36 39 40 43 51 50 44 42 46
14 15 16 17 18 18 19 19 19 19 18 19 19 20 23 27 25 19 18 17 15 14 14 27 31 29 21 20 18 19 21 22 25 24 29 35 39 38 41 33 35 37 44
14 15 16 16 17 17 19 19 21 21 20 20 21 22 22 24 27 27 22 19 17 18 21 29 25 16 15 16 15 13 15 21 23 24 22 26 30 36 40 39 34 42 45
14 16 16 16 16 17 18 20 22 22 22 22 22 23 24 24 24 28 28 26 20 19 21 23 21 16 9 7 6 6 10 9 20 20 18 21 26 32 42 37 37 41 51
14 15 15 15 16 17 19 20 21 22 23 23 23 24 25 26 26 25 27 28 26 24 22 20 19 15 8 6 1 3 6 12 14 16 17 22 25 29 33 38 39 39 39
13 14 15 15 15 16 18 20 20 21 23 23 24 24 25 26 27 26 26 27 27 27 29 26 25 23 18 9 4 8 5 6 15 16 16 16 17 21 25 35 30 31 26
13 13 14 15 15 16 18 20 22 22 22 22 22 23 23 24 25 26 26 27 26 28 30 33 32 28 29 25 12 8 10 15 15 18 17 16 13 12 18 24 24 29 31
12 12 13 15 16 17 17 20 21 21 21 22 22 22 22 23 24 23 25 24 26 29 30 31 32 33 30 27 19 11 6 3 7 20 22 22 15 16 11 8 12 20 25
10 11 12 14 17 18 16 18 20 21 22 24 23 24 23 23 22 23 22 21 22 23 26 28 30 30 28 22 17 14 19 15 17 15 23 25 23 21 22 19 8 5 6
8 10 11 12 14 16 16 16 18 20 21 23 24 26 25 24 23 22 21 22 24 24 24 23 24 24 22 18 14 14 11 15 15 16 17 23 22 21 16 21 21 19 14
7 9 11 10 11 12 14 16 16 18 19 21 22 24 26 25 23 22 20 21 21 22 21 19 17 17 20 19 15 5 7 8 15 16 14 14 14 19 18 17 15 13 14
6 9 9 9 10 10 12 14 15 16 17 19 20 22 23 24 22 23 23 23 25 24 20 18 17 17 19 21 24 25 22 22 13 9 16 14 9 6 5 15 13 14 13
Wind_Direction
331 330 328 326 323 319 316 313 309 302 296 289 282 275 266 261 258 255 252 252 251 249 244 241 239 244 243 241 240 242 239 239 237 239 237 226 226 221 208 207 203 210 211
333 332 331 330 328 325 322 318 314 309 304 298 290 282 274 267 260 255 253 249 249 248 247 242 239 238 242 241 240 241 239 238 238 236 235 230 222 215 210 211 206 209 211
340 340 338 335 333 330 326 321 315 311 308 303 297 293 287 276 267 260 254 250 247 246 245 244 240 240 237 241 241 239 240 237 238 236 235 231 219 218 214 209 207 201 215
344 344 342 341 338 336 331 326 321 318 315 312 307 299 292 289 280 271 263 255 247 245 244 243 241 242 238 237 241 240 234 236 235 236 233 229 217 217 215 209 211 209 214
346 347 347 346 343 340 338 334 332 331 328 323 317 313 305 304 297 286 273 261 251 245 242 242 241 240 242 234 237 238 236 234 232 233 232 229 220 218 219 219 213 210 207
345 347 349 349 348 345 343 342 340 344 343 336 328 324 327 321 319 329 300 268 256 246 241 240 241 241 242 240 234 237 236 233 235 231 232 230 225 223 222 220 222 219 220
343 348 353 354 354 352 349 348 344 348 355 346 343 339 347 339 266 338 351 355 279 250 243 238 239 242 242 242 238 236 236 235 235 233 230 231 229 227 225 224 223 223 224
345 350 356 360 0 358 355 351 352 350 357 357 353 352 341 357 310 314 292 316 324 312 264 246 239 240 243 246 243 242 239 236 237 239 233 232 231 230 229 228 224 223 225
348 353 358 3 5 5 1 356 358 352 344 349 354 351 339 320 325 331 332 319 315 303 295 274 250 241 240 242 248 248 242 242 239 241 236 231 232 230 230 228 225 227 224
351 355 359 2 6 10 7 4 356 348 341 341 347 335 311 304 317 316 319 328 332 316 301 278 272 263 246 242 241 250 251 246 240 236 236 232 234 234 232 230 228 229 229
353 356 359 4 8 12 13 11 6 352 351 349 339 332 336 325 335 304 304 314 323 324 323 307 276 270 254 249 243 242 250 250 245 240 233 230 236 237 234 233 231 230 230
356 359 3 6 10 14 17 17 14 6 360 351 346 346 345 344 314 314 307 306 310 315 317 321 309 282 259 254 252 246 244 246 245 243 242 221 238 245 234 235 234 232 233
0 5 8 9 11 15 18 20 20 15 6 356 354 353 352 342 333 326 315 311 310 308 311 313 318 308 267 259 256 249 254 245 239 235 237 237 244 239 239 231 236 236 235
8 10 9 11 13 13 14 16 18 21 26 21 11 1 360 359 353 341 328 319 319 314 314 315 319 319 307 273 256 253 259 251 241 235 231 231 237 235 227 243 234 236 240
13 14 13 14 16 18 17 16 13 13 15 21 24 22 15 7 7 2 350 336 315 313 316 313 315 310 300 295 275 262 260 252 239 236 228 233 233 232 240 250 249 254 242
14 15 18 17 16 18 20 20 19 19 16 16 20 24 22 17 11 14 13 359 343 308 291 305 309 315 329 315 298 274 265 262 247 237 231 227 228 229 237 243 239 234 238
16 15 17 18 16 18 21 20 20 19 19 22 21 20 21 23 19 16 23 20 7 341 318 317 320 322 313 306 293 263 258 263 256 244 234 226 227 230 236 235 231 236 237
20 19 18 18 18 22 23 22 22 19 20 23 24 23 23 24 26 22 22 25 25 10 342 336 335 316 318 337 250 229 192 182 231 242 233 229 224 221 223 224 222 228 232
23 20 18 19 21 25 25 25 23 22 24 24 24 23 26 21 24 26 27 29 27 34 25 7 3 358 346 351 243 90 204 148 165 209 222 221 220 220 223 227 226 231 234
23 24 22 20 22 24 26 25 24 23 24 27 27 26 28 24 21 22 25 27 29 36 42 30 22 20 22 36 74 64 77 112 128 168 183 198 193 206 221 220 217 211 221
27 28 27 24 23 26 28 27 23 20 22 28 30 28 31 29 25 23 24 26 26 28 37 41 37 28 20 25 44 58 83 76 88 113 116 144 157 174 193 213 215 224 231
28 27 27 27 25 31 30 27 24 21 23 26 33 31 31 32 28 25 28 30 28 30 31 32 36 34 26 24 19 31 317 309 68 89 85 88 110 109 111 154 214 222 229
28 27 26 27 26 31 30 30 26 23 24 28 33 32 34 34 31 25 27 29 30 35 35 30 33 34 27 21 15 45 66 83 84 79 88 82 83 85 76 75 60 309 312
26 26 28 29 26 29 22 28 24 24 26 28 28 31 32 34 33 28 27 28 28 27 33 32 33 34 35 31 24 38 57 77 92 90 81 71 75 71 75 72 72 69 68
24 24 27 24 20 22 28 15 22 23 23 26 30 33 27 31 32 32 30 37 39 38 36 36 35 41 44 50 54 97 58 68 64 55 58 68 65 61 57 60 59 62 58
12 15 17 17 16 16 25 18 15 17 18 20 23 25 32 30 27 26 28 33 34 36 38 40 41 40 40 47 49 54 54 56 48 45 37 38 37 37 21 38 39 44 47